User: anonymous   Login
Location: Castillon
(43.0896°N, 0.2156°E)
Time: 00:11:30
(UTC+00:00)
Language:

BREEZE-M DEB (TANK) - Orbit

View from above orbital plane
View from above orbital plane
View from above satellite
View from above satellite

Ground track
Ground track

The orbit data is extracted from the following two-line orbital elements,

1 39010U 12065C   21262.51742665  .00003372  00000-0  57415-3 0  9996
2 39010  49.6609  87.0707 4669219 123.9629 289.5404  6.17208592196050
Epoch (UTC): 19 September 2021 12:25:05
Eccentricity: 0.4669219
inclination: 49.6609°
perigee height: 314 km
apogee height: 12037 km
right ascension of ascending node: 87.0707°
argument of perigee: 123.9629°
revolutions per day: 6.17208592
mean anomaly at epoch: 289.5404°
orbit number at epoch: 19605

The dashed part of the orbit path shows where the satellite is in the earth's shadow,  

DLR